• In Austria
  • List of Countries
  • For 7 days
  • Water Temperature
  • Satellite Maps
  • Weather Map
  • News
  • Weather Widgets
  • user-avatar
    Login

    Hourly Weather Kozani

    Today, 21 September, Friday

    Time Temperature Precipitation Wind Pressure Humidity
    00:00 +16°C° 0 mm 1 mps 706 mmHg 67%
    01:00 +16°C° 0 mm 1 mps 706 mmHg 69%
    02:00 +16°C° 0 mm 1 mps 706 mmHg 70%
    03:00 +15°C° 0 mm 1 mps 706 mmHg 71%
    04:00 +15°C° 0 mm 1 mps 706 mmHg 72%
    05:00 +16°C° 0 mm 1 mps 706 mmHg 68%
    06:00 +18°C° 0 mm 1 mps 706 mmHg 63%
    07:00 +19°C° 0 mm 1 mps 707 mmHg 59%
    08:00 +21°C° 0 mm 1 mps 707 mmHg 52%
    09:00 +23°C° 0 mm 1 mps 707 mmHg 45%
    10:00 +25°C° 0 mm 2 mps 707 mmHg 38%
    11:00 +26°C° 0 mm 2 mps 707 mmHg 35%
    12:00 +27°C° 0 mm 2 mps 707 mmHg 32%
    13:00 +28°C° 0 mm 2 mps 707 mmHg 29%
    14:00 +27°C° 0 mm 2 mps 707 mmHg 30%
    15:00 +27°C° 0 mm 2 mps 706 mmHg 30%
    16:00 +27°C° 0 mm 2 mps 706 mmHg 31%
    17:00 +25°C° 0 mm 2 mps 706 mmHg 36%
    18:00 +22°C° 0 mm 1 mps 706 mmHg 41%
    19:00 +20°C° 0 mm 1 mps 706 mmHg 46%
    20:00 +20°C° 0 mm 1 mps 706 mmHg 48%
    21:00 +19°C° 0 mm 1 mps 706 mmHg 49%
    22:00 +18°C° 0 mm 1 mps 706 mmHg 50%
    23:00 +18°C° 0 mm 1 mps 706 mmHg 51%

    Tomorrow, 22 September, Saturday

    Time Temperature Precipitation Wind Pressure Humidity
    00:00 +18°C° 0 mm 1 mps 706 mmHg 52%
    01:00 +16°C° 0 mm 1 mps 706 mmHg 53%
    02:00 +16°C° 0 mm 1 mps 706 mmHg 53%
    03:00 +16°C° 0 mm 1 mps 706 mmHg 54%
    04:00 +16°C° 0 mm 1 mps 706 mmHg 55%
    05:00 +18°C° 0 mm 1 mps 706 mmHg 52%
    06:00 +19°C° 0 mm 1 mps 706 mmHg 49%
    07:00 +20°C° 0 mm 1 mps 707 mmHg 47%
    08:00 +23°C° 0 mm 1 mps 707 mmHg 41%
    09:00 +25°C° 0 mm 1 mps 707 mmHg 36%
    10:00 +25°C° 0 mm 0 mps 708 mmHg 30%
    11:00 +28°C° 0 mm 1 mps 707 mmHg 28%
    12:00 +29°C° 0 mm 1 mps 707 mmHg 27%
    13:00 +30°C° 0 mm 1 mps 707 mmHg 25%
    14:00 +29°C° 0 mm 1 mps 707 mmHg 26%
    15:00 +29°C° 0 mm 1 mps 707 mmHg 27%
    16:00 +28°C° 0 mm 1 mps 706 mmHg 27%
    17:00 +26°C° 0 mm 1 mps 706 mmHg 32%
    18:00 +24°C° 0 mm 1 mps 706 mmHg 37%
    19:00 +22°C° 0 mm 1 mps 706 mmHg 42%
    20:00 +22°C° 0 mm 1 mps 707 mmHg 44%
    21:00 +21°C° 0 mm 1 mps 707 mmHg 46%
    22:00 +20°C° 0 mm 1 mps 707 mmHg 48%
    23:00 +20°C° 0 mm 1 mps 707 mmHg 50%

    Day after tomorrow, 23 September, Sunday

    Time Temperature Precipitation Wind Pressure Humidity
    00:00 +20°C° 0 mm 1 mps 707 mmHg 52%
    01:00 +19°C° 0 mm 1 mps 707 mmHg 54%
    02:00 +19°C° 0 mm 1 mps 707 mmHg 56%
    03:00 +18°C° 0 mm 1 mps 707 mmHg 58%
    04:00 +17°C° 0 mm 2 mps 707 mmHg 60%
    05:00 +19°C° 0 mm 1 mps 708 mmHg 58%
    06:00 +20°C° 0 mm 1 mps 708 mmHg 57%
    07:00 +21°C° 0 mm 1 mps 708 mmHg 55%
    08:00 +23°C° 0 mm 1 mps 709 mmHg 48%
    09:00 +25°C° 0 mm 1 mps 709 mmHg 42%
    10:00 +27°C° 0 mm 1 mps 710 mmHg 35%
    11:00 +28°C° 0 mm 1 mps 709 mmHg 33%
    12:00 +29°C° 0 mm 1 mps 709 mmHg 31%
    13:00 +30°C° 0 mm 1 mps 709 mmHg 28%
    14:00 +30°C° 0 mm 1 mps 709 mmHg 29%
    15:00 +29°C° 0 mm 2 mps 709 mmHg 30%
    16:00 +29°C° 0 mm 2 mps 709 mmHg 30%
    17:00 +27°C° 0 mm 1 mps 709 mmHg 35%
    18:00 +25°C° 0 mm 1 mps 709 mmHg 39%
    19:00 +23°C° 0 mm 1 mps 709 mmHg 44%
    20:00 +22°C° 0 mm 1 mps 709 mmHg 45%
    21:00 +19°C° 0 mm 0 mps 709 mmHg 47%
    22:00 +19°C° 0 mm 0 mps 709 mmHg 48%
    23:00 +18°C° 0 mm 0 mps 709 mmHg 50%

    24 September, Monday

    Time Temperature Precipitation Wind Pressure Humidity
    00:00 +18°C° 0 mm 0 mps 708 mmHg 51%
    01:00 +18°C° 0 mm 0 mps 708 mmHg 52%
    02:00 +17°C° 0 mm 0 mps 708 mmHg 53%
    03:00 +17°C° 0 mm 0 mps 707 mmHg 54%
    04:00 +17°C° 0 mm 0 mps 707 mmHg 55%
    05:00 +20°C° 0 mm 1 mps 707 mmHg 53%
    06:00 +21°C° 0 mm 1 mps 707 mmHg 51%
    07:00 +22°C° 0 mm 1 mps 707 mmHg 48%
    08:00 +24°C° 0 mm 1 mps 707 mmHg 44%
    09:00 +26°C° 0 mm 2 mps 707 mmHg 39%
    10:00 +28°C° 0 mm 2 mps 707 mmHg 34%
    11:00 +29°C° 0 mm 2 mps 707 mmHg 32%
    12:00 +30°C° 0 mm 2 mps 707 mmHg 30%
    13:00 +31°C° 0 mm 2 mps 706 mmHg 28%
    14:00 +31°C° 0 mm 2 mps 706 mmHg 29%
    15:00 +31°C° 0 mm 3 mps 705 mmHg 30%
    16:00 +30°C° 0 mm 3 mps 705 mmHg 31%
    17:00 +28°C° 0 mm 2 mps 705 mmHg 37%
    18:00 +25°C° 0 mm 2 mps 704 mmHg 43%
    19:00 +23°C° 0 mm 1 mps 704 mmHg 49%
    20:00 +21°C° 0 mm 2 mps 704 mmHg 51%
    21:00 +21°C° 0 mm 2 mps 705 mmHg 53%
    22:00 +20°C° 0 mm 2 mps 705 mmHg 54%
    23:00 +19°C° 0 mm 2 mps 705 mmHg 57%

    25 September, Tuesday

    Time Temperature Precipitation Wind Pressure Humidity
    00:00 +18°C° 0 mm 3 mps 705 mmHg 59%
    01:00 +17°C° 0 mm 3 mps 705 mmHg 61%
    02:00 +16°C° 0 mm 3 mps 705 mmHg 61%
    03:00 +14°C° 0 mm 3 mps 705 mmHg 61%
    04:00 +13°C° 0 mm 3 mps 705 mmHg 60%
    05:00 +14°C° 0 mm 3 mps 706 mmHg 58%
    06:00 +14°C° 0 mm 3 mps 706 mmHg 55%
    07:00 +14°C° 0 mm 3 mps 706 mmHg 53%
    08:00 +17°C° 0 mm 3 mps 706 mmHg 49%
    09:00 +18°C° 0 mm 3 mps 707 mmHg 45%
    10:00 +20°C° 0 mm 3 mps 707 mmHg 41%
    11:00 +20°C° 0 mm 3 mps 707 mmHg 41%
    12:00 +20°C° 0 mm 4 mps 707 mmHg 41%
    13:00 +20°C° 0 mm 4 mps 707 mmHg 41%
    14:00 +19°C° 0 mm 4 mps 707 mmHg 42%
    15:00 +18°C° 0 mm 4 mps 707 mmHg 43%
    16:00 +18°C° 0 mm 4 mps 707 mmHg 44%
    17:00 +15°C° 0 mm 4 mps 707 mmHg 47%
    18:00 +14°C° 0 mm 4 mps 708 mmHg 50%
    19:00 +13°C° 0 mm 3 mps 708 mmHg 53%
    20:00 +12°C° 0.6 mm 3 mps 708 mmHg 58%
    21:00 +10°C° 0.6 mm 3 mps 708 mmHg 64%
    22:00 +9°C° 0.6 mm 3 mps 708 mmHg 69%
    23:00 +9°C° 1.3 mm 3 mps 708 mmHg 72%

    26 September, Wednesday

    Time Temperature Precipitation Wind Pressure Humidity
    00:00 +8°C° 1.3 mm 3 mps 708 mmHg 76%
    01:00 +8°C° 1.3 mm 3 mps 708 mmHg 79%
    02:00 +7°C° 2.2 mm 3 mps 708 mmHg 81%
    03:00 +7°C° 2.2 mm 3 mps 708 mmHg 83%
    04:00 +5°C° 2.2 mm 3 mps 708 mmHg 85%
    05:00 +5°C° 2.5 mm 3 mps 708 mmHg 85%
    06:00 +5°C° 2.5 mm 3 mps 709 mmHg 86%
    07:00 +5°C° 2.5 mm 3 mps 709 mmHg 86%
    08:00 +5°C° 1.5 mm 3 mps 709 mmHg 86%
    09:00 +5°C° 1.5 mm 3 mps 709 mmHg 86%
    10:00 +5°C° 1.5 mm 3 mps 709 mmHg 86%
    11:00 +7°C° 1.1 mm 2 mps 709 mmHg 84%
    12:00 +7°C° 1.1 mm 2 mps 709 mmHg 83%
    13:00 +7°C° 1.1 mm 2 mps 709 mmHg 82%
    14:00 +8°C° 0.4 mm 2 mps 709 mmHg 80%
    15:00 +8°C° 0.4 mm 2 mps 709 mmHg 78%
    16:00 +10°C° 0.4 mm 1 mps 708 mmHg 77%
    17:00 +9°C° 0.1 mm 1 mps 709 mmHg 78%
    18:00 +9°C° 0.1 mm 1 mps 709 mmHg 79%
    19:00 +9°C° 0.1 mm 1 mps 709 mmHg 81%
    20:00 +8°C° 0 mm 1 mps 710 mmHg 80%
    21:00 +8°C° 0 mm 1 mps 710 mmHg 80%
    22:00 +6°C° 0 mm 2 mps 710 mmHg 79%
    23:00 +6°C° 0 mm 2 mps 710 mmHg 78%
    Show more